sat.trackr.live / text

‹ back to catalog

STARLINK-36687

NORAD 67711 · 2026-025U

PAYLOAD ACTIVE UNKNOWN

§ Identity

Operator
Country
US
Launch date
2026-02-07
Launch site
AFWTR
Launch vehicle
Mass (kg)
RCS (m²)

Purposes: comms

External: N2YO · Heavens-Above · Gunter

§ Orbital elements

Epoch: 2026-09-19T12:56:55.361760Z

Period
93.91 min
Inclination
97.2859°
Eccentricity
0.0001542
Mean motion
15.33450485 rev/d
Perigee alt
464.5 km
Apogee alt
466.6 km
Semi-major
6,843.7 km
B*
5.1264e-4
RAAN
12.5333°
Arg perigee
105.7238°
Mean anomaly
254.4175°
Rev number
3,573

§ Raw data

STARLINK-366871 67711U 26025U   26262.53952965  .00016514  00000+0  51264-3 0  99962 67711  97.2859  12.5333 0001542 105.7238 254.4175 15.33450485 35733

JSON: /api/v1/satellites/67711 · /tle

For live sub-satellite position, see the globe view (requires WebGL).

§ Visibility from observer

Set your observer location to see the next 7 days of passes ≥ 10°. The values pass through the URL so the page stays shareable.

No JS? Fill the form by hand. The geolocation button needs JavaScript.